Погода в Ивантеево

Россия / Новгородская область     57°47′38″N   33°08′45″E
темп.,
°C
ветер,
м/с
пор.,
м/с
влажн.,
%
обл.,
%
осадки,
мм/ч
давл.,
гПа
погр.,
м
18 апреля, вс
вс1800:00+7всв4136438 0.0 1025406
03:00+5всв412753 0.0 1025332
06:00+3всв311815 0.0 1026300
09:00+8всв510630 0.0 1025645
12:00+11всв58445 0.0 10251590
15:00+13всв683870 0.0 10242234
18:00+11всв674952 0.0 10251545
21:00+7всв4106222 0.0 1026612
19 апреля, пн
пн1900:00+5всв4117524 0.0 1027474
03:00+4всв398672 0.0 1028391
06:00+2всв399172 0.0 1028372
09:00+5всв477786 0.0 1028662
12:00+6в4665100 0.0 10281081
15:00+9в465075 0.0 10271493
18:00+9в454781 0.0 10261717
21:00+4в276838 0.0 1027191
20 апреля, вт
вт2000:00+2всв310745 0.0 1027271
03:000всв310777 0.0 1026266
06:000всв3107737 0.0 1025349
09:00+3в5958100 0.0 1024725
12:00+7в5857100 0.0 10221258
15:00+4в5989100 0.2 1021867
18:00+3в51094100 0.3 1019797
21:00+3в41097100 0.4 1018789
21 апреля, ср
ср2100:00+3всв4997100 0.0 1014662
03:00+3всв51297100 1.1 1010775
06:00+1св51397100 4.4 1006590
09:00+1всв41097100 5.8 1004483
12:00+2всв3798100 1.3 1002327
15:00+2с2299100 3.5 1001135
18:00+2зсз2699100 1.0 1002324
21:00+1з4897100 1.2 1004683
22 апреля, чт
чт2200:00+1зюз4997100 0.1 1006727
03:00+1юз3998100 0.9 1007716
06:00+1зюз41098100 1.9 1010719
09:00+2зюз3998100 2.9 1012594
12:00+6зюз4783100 0.0 1014839
15:00+10зюз366282 0.1 10151670
18:00+9юз247372 0.1 1016436
21:00+6юв258831 0.1 101891